Kavala/Chrysoupoli International Airport

Airport
ICAO code: 
LGKV
IATA Code: 
KVA
Summary
ICAO Region: 
EUR
Territory: 
Location: 
Chrysoupoli, Eastern Macedonia and Thrace
Serving: 
Kavala
Elevation: 
18 ft
Coordinates: 
Aerial View: 
39° 36' 6.998" N, 19° 54' 43.999" E
Metar
Observation
LGKV 251220Z 18007KT 9999 FEW020 25/15 Q1016
Station
Chrysoupoli Airport
Date/Time
2022-05-25 12:20:00
Wind direction
180°
Wind speed
07 kts
Lowest cloud amount
few clouds
Temperature
25°C
Dew point
15°C
Humidity
53%
QNH
1016 hPa
Weather condition
n/a

Description

Kavala International Airport "Alexander the Great" is an airport located in the municipality of Nestos, in Greece.

Climatology

Mediterranean climate (Köppen climate classification Csa) - Hot, dry summer and a mild wet winter.

Runways

Designator Length Width Surface Rops
05R/23L 3000 45 ASP Yes/Yes
Airport map: 
Aerial View: 

SKYbrary Partners:

Safety knowledge contributed by: